timestamp,surface_pressure_avg,surface_temp_avg,battery_voltage,lat,long
2019-01-01 00:00:00+00:00,238.9915,2.2,12.97,47.84626,-54.09684
2019-01-01 00:10:00+00:00,236.8231,2.2,12.89,47.84626,-54.09684
2019-01-01 00:20:00+00:00,231.9931,2.1,12.97,47.84626,-54.09684
2019-01-01 00:30:00+00:00,225.4448,2.0,12.97,47.84626,-54.09684
2019-01-01 00:40:00+00:00,222.9381,1.98,12.97,47.84626,-54.09684
2019-01-01 00:50:00+00:00,225.1981,2.04,12.97,47.84626,-54.09684
2019-01-01 01:00:00+00:00,224.9414,2.1,12.89,47.84626,-54.09684
2019-01-01 01:10:00+00:00,223.0881,2.1,12.81,47.84626,-54.09684
2019-01-01 01:20:00+00:00,224.3864,2.18,12.97,47.84626,-54.09684
2019-01-01 01:30:00+00:00,225.8147,2.2,12.97,47.84626,-54.09684
2019-01-01 01:40:00+00:00,222.9114,2.2,12.97,47.84626,-54.09684
2019-01-01 01:50:00+00:00,219.3264,2.26,12.97,47.84626,-54.09684
2019-01-01 02:00:00+00:00,218.1997,2.3,12.89,47.84626,-54.09684
2019-01-01 02:10:00+00:00,220.0864,2.3,12.81,47.84626,-54.09684
2019-01-01 02:20:00+00:00,221.6664,2.3,12.89,47.84626,-54.09684
2019-01-01 02:30:00+00:00,222.4081,2.3,12.89,47.84626,-54.09684
2019-01-01 02:40:00+00:00,224.7581,2.3,12.97,47.84626,-54.09684
2019-01-01 02:50:00+00:00,231.0997,2.3,12.97,47.84626,-54.09684
2019-01-01 03:00:00+00:00,237.5531,2.29,12.89,47.84626,-54.09684
2019-01-01 03:10:00+00:00,240.1764,2.2,12.81,47.84626,-54.09684
2019-01-01 03:20:00+00:00,241.8031,2.18,12.89,47.84626,-54.09684
2019-01-01 03:30:00+00:00,246.4748,2.1,12.89,47.84626,-54.09684
2019-01-01 03:40:00+00:00,252.6997,2.09,12.97,47.84626,-54.09684
2019-01-01 03:50:00+00:00,255.6364,2.04,12.97,47.84626,-54.09684
2019-01-01 04:00:00+00:00,260.3314,2.0,12.81,47.84626,-54.09684
2019-01-01 04:10:00+00:00,266.8714,2.0,12.81,47.84626,-54.09684
2019-01-01 04:20:00+00:00,267.5197,2.0,12.89,47.84626,-54.09684
2019-01-01 04:30:00+00:00,262.5081,1.98,12.89,47.84626,-54.09684
2019-01-01 04:40:00+00:00,263.7414,1.93,12.89,47.84626,-54.09684
2019-01-01 04:50:00+00:00,273.2498,1.9,12.97,47.84626,-54.09684
2019-01-01 05:00:00+00:00,280.6981,1.85,12.81,47.84626,-54.09684
2019-01-01 05:10:00+00:00,283.813,1.82,12.73,47.84626,-54.09684
2019-01-01 05:20:00+00:00,290.148,1.87,12.89,47.84626,-54.09684
2019-01-01 05:30:00+00:00,302.8363,1.82,12.89,47.84626,-54.09684
2019-01-01 05:40:00+00:00,311.698,1.8,12.89,47.84626,-54.09684
2019-01-01 05:50:00+00:00,311.4915,1.8,12.89,47.84626,-54.09684
2019-01-01 06:00:00+00:00,315.8513,1.8,12.81,47.84626,-54.09684
2019-01-01 06:10:00+00:00,324.838,1.8,12.73,47.84626,-54.09684
2019-01-01 06:20:00+00:00,331.163,1.8,12.81,47.84626,-54.09684
2019-01-01 06:30:00+00:00,329.7162,1.8,12.81,47.84626,-54.09684
2019-01-01 06:40:00+00:00,332.113,1.79,12.89,47.84626,-54.09684
2019-01-01 06:50:00+00:00,337.618,1.7,12.89,47.84626,-54.09684
2019-01-01 07:00:00+00:00,340.6331,1.7,12.81,47.84626,-54.09684
2019-01-01 07:10:00+00:00,340.9098,1.7,12.73,47.84626,-54.09684
2019-01-01 07:20:00+00:00,345.3763,1.7,12.81,47.84626,-54.09684
2019-01-01 07:30:00+00:00,349.1296,1.7,12.81,47.84626,-54.09684
2019-01-01 07:40:00+00:00,352.1329,1.67,12.89,47.84626,-54.09684
2019-01-01 07:50:00+00:00,351.4996,1.6,12.89,47.84626,-54.09684
2019-01-01 08:00:00+00:00,352.8813,1.6,12.81,47.84626,-54.09684
2019-01-01 08:10:00+00:00,350.9696,1.62,12.73,47.84626,-54.09684
2019-01-01 08:20:00+00:00,349.0046,1.61,12.81,47.84626,-54.09684
2019-01-01 08:30:00+00:00,347.3378,1.6,12.81,47.84626,-54.09684
2019-01-01 08:40:00+00:00,343.0696,1.6,12.81,47.84626,-54.09684
2019-01-01 08:50:00+00:00,336.2462,1.62,12.89,47.84626,-54.09684
2019-01-01 09:00:00+00:00,335.6229,1.63,12.73,47.84626,-54.09684
2019-01-01 09:10:00+00:00,335.4863,1.64,12.73,47.84626,-54.09684
2019-01-01 09:20:00+00:00,326.1797,1.69,12.81,47.84626,-54.09684
2019-01-01 09:30:00+00:00,319.9313,1.7,12.81,47.84626,-54.09684
2019-01-01 09:40:00+00:00,320.6497,1.7,12.81,47.84626,-54.09684
2019-01-01 09:50:00+00:00,316.1696,1.7,12.81,47.84626,-54.09684
2019-01-01 10:00:00+00:00,306.098,1.7,12.73,47.84626,-54.09684
2019-01-01 10:10:00+00:00,302.4798,1.7,12.65,47.84626,-54.09684
2019-01-01 10:20:00+00:00,300.0464,1.7,12.81,47.84626,-54.09684
2019-01-01 10:30:00+00:00,289.4747,1.7,12.81,47.84626,-54.09684
2019-01-01 10:40:00+00:00,277.3447,1.7,12.81,47.84626,-54.09684
2019-01-01 10:50:00+00:00,274.9197,1.7,12.81,47.84626,-54.09684
2019-01-01 11:00:00+00:00,273.6297,1.7,12.73,47.84626,-54.09684
2019-01-01 11:10:00+00:00,267.9997,1.72,12.65,47.84626,-54.09684
2019-01-01 11:20:00+00:00,258.6747,1.78,12.73,47.84626,-54.09684
2019-01-01 11:30:00+00:00,253.1831,1.8,12.81,47.84626,-54.09684
2019-01-01 11:40:00+00:00,253.3297,1.8,13.13,47.84626,-54.09684
2019-01-01 11:50:00+00:00,251.6631,1.8,14.08,47.84626,-54.09684
2019-01-01 12:00:00+00:00,245.6698,1.8,14.88,47.84626,-54.09684
2019-01-01 12:10:00+00:00,243.763,1.7,16.95,47.84626,-54.09684
2019-01-01 12:20:00+00:00,242.3247,1.76,17.18,47.84626,-54.09684
2019-01-01 12:30:00+00:00,237.5614,1.78,17.18,47.84626,-54.09684
2019-01-01 12:40:00+00:00,231.7548,1.6,17.18,47.84626,-54.09684
2019-01-01 12:50:00+00:00,228.9531,1.52,17.27,47.84626,-54.09684
2019-01-01 13:00:00+00:00,226.0131,1.5,14.96,47.84626,-54.09684
2019-01-01 13:10:00+00:00,220.2714,1.4,15.44,47.84626,-54.09684
2019-01-01 13:20:00+00:00,217.8748,1.4,14.96,47.84626,-54.09684
2019-01-01 13:30:00+00:00,219.8131,1.4,14.88,47.84626,-54.09684
2019-01-01 13:40:00+00:00,219.4948,1.4,14.72,47.84626,-54.09684
2019-01-01 13:50:00+00:00,220.6698,1.4,14.88,47.84626,-54.09684
2019-01-01 14:00:00+00:00,223.9232,1.4,14.8,47.84626,-54.09684
2019-01-01 14:10:00+00:00,227.7981,1.3,17.27,47.84626,-54.09684
2019-01-01 14:20:00+00:00,226.0381,1.2,15.2,47.84626,-54.09684
2019-01-01 14:30:00+00:00,226.0715,1.1,15.6,47.84626,-54.09684
2019-01-01 14:40:00+00:00,225.0265,1.1,16.39,47.84626,-54.09684
2019-01-01 14:50:00+00:00,221.5381,1.1,16.79,47.84626,-54.09684
2019-01-01 15:00:00+00:00,217.6831,1.17,15.6,47.84626,-54.09684
2019-01-01 15:10:00+00:00,217.3881,1.24,15.35,47.84626,-54.09684
2019-01-01 15:20:00+00:00,220.4265,1.31,15.11,47.84626,-54.09684
2019-01-01 15:30:00+00:00,221.8798,1.4,15.35,47.84626,-54.09684
2019-01-01 15:40:00+00:00,222.3381,1.49,15.44,47.84626,-54.09684
2019-01-01 15:50:00+00:00,225.8798,1.54,15.27,47.84626,-54.09684
2019-01-01 16:00:00+00:00,224.3881,1.62,14.96,47.84626,-54.09684
2019-01-01 16:10:00+00:00,225.4131,1.7,14.88,47.84626,-54.09684
2019-01-01 16:20:00+00:00,233.3115,1.8,14.8,47.84626,-54.09684
2019-01-01 16:30:00+00:00,229.7814,1.8,14.88,47.84626,-54.09684
2019-01-01 16:40:00+00:00,221.6547,1.8,14.96,47.84626,-54.09684
2019-01-01 16:50:00+00:00,225.2764,1.79,14.72,47.84626,-54.09684
2019-01-01 17:00:00+00:00,231.163,1.8,14.56,47.84626,-54.09684
2019-01-01 17:10:00+00:00,234.0431,1.8,14.32,47.84626,-54.09684
2019-01-01 17:20:00+00:00,236.6231,1.85,14.32,47.84626,-54.09684
2019-01-01 17:30:00+00:00,240.0647,1.94,14.32,47.84626,-54.09684
2019-01-01 17:40:00+00:00,245.2981,2.05,14.32,47.84626,-54.09684
2019-01-01 17:50:00+00:00,255.0248,2.1,14.32,47.84626,-54.09684
2019-01-01 18:00:00+00:00,267.5347,2.1,14.24,47.84626,-54.09684
2019-01-01 18:10:00+00:00,276.6764,2.1,14.16,47.84626,-54.09684
2019-01-01 18:20:00+00:00,277.6531,2.0,14.24,47.84626,-54.09684
2019-01-01 18:30:00+00:00,283.5964,1.99,14.24,47.84626,-54.09684
2019-01-01 18:40:00+00:00,294.918,1.92,14.24,47.84626,-54.09684
2019-01-01 18:50:00+00:00,305.0797,2.0,14.16,47.84626,-54.09684
2019-01-01 19:00:00+00:00,304.118,2.02,14.0,47.84626,-54.09684
2019-01-01 19:10:00+00:00,308.0881,2.08,13.84,47.84626,-54.09684
2019-01-01 19:20:00+00:00,309.7062,2.1,13.84,47.84626,-54.09684
2019-01-01 19:30:00+00:00,309.2546,2.1,13.76,47.84626,-54.09684
2019-01-01 19:40:00+00:00,315.3879,2.08,13.76,47.84626,-54.09684
2019-01-01 19:50:00+00:00,332.1063,2.1,13.68,47.84626,-54.09684
2019-01-01 20:00:00+00:00,336.4713,2.1,13.6,47.84626,-54.09684
2019-01-01 20:10:00+00:00,335.2712,2.09,13.44,47.84626,-54.09684
2019-01-01 20:20:00+00:00,334.2529,2.0,13.37,47.84626,-54.09684
2019-01-01 20:30:00+00:00,338.6647,2.0,13.37,47.84626,-54.09684
2019-01-01 20:40:00+00:00,330.3013,2.0,13.37,47.84626,-54.09684
2019-01-01 20:50:00+00:00,331.4213,1.9,13.29,47.84626,-54.09684
2019-01-01 21:00:00+00:00,335.0015,1.93,13.21,47.84626,-54.09684
2019-01-01 21:10:00+00:00,336.398,1.94,13.05,47.84626,-54.09684
2019-01-01 21:20:00+00:00,329.293,1.96,13.13,47.84626,-54.09684
2019-01-01 21:30:00+00:00,323.4697,1.96,13.13,47.84626,-54.09684
2019-01-01 21:40:00+00:00,317.843,1.96,13.13,47.84626,-54.09684
2019-01-01 21:50:00+00:00,326.4247,1.98,13.13,47.84626,-54.09684
2019-01-01 22:00:00+00:00,331.6814,2.0,13.05,47.84626,-54.09684
2019-01-01 22:10:00+00:00,336.2029,2.0,12.97,47.84626,-54.09684
2019-01-01 22:20:00+00:00,328.133,2.06,13.05,47.84626,-54.09684
2019-01-01 22:30:00+00:00,319.4547,2.03,13.05,47.84626,-54.09684
2019-01-01 22:40:00+00:00,315.3763,2.0,13.05,47.84626,-54.09684
2019-01-01 22:50:00+00:00,306.6013,2.0,13.05,47.84626,-54.09684
2019-01-01 23:00:00+00:00,292.8513,2.0,12.97,47.84626,-54.09684
2019-01-01 23:10:00+00:00,281.5947,2.0,12.89,47.84626,-54.09684
2019-01-01 23:20:00+00:00,278.5164,1.99,12.97,47.84626,-54.09684
2019-01-01 23:30:00+00:00,270.7548,1.6,12.97,47.84626,-54.09684
2019-01-01 23:40:00+00:00,266.0331,1.69,13.05,47.84626,-54.09684
2019-01-01 23:50:00+00:00,269.2464,1.9,13.05,47.84626,-54.09684
